This is the latest recevied weather packets stored in our database for station/object VK2OB. If no packets are shown the sender has not sent any weather packets the latest 10 day(s).
| Time | Temp. | Humidity | Pressure | Rain* | Wind** | Luminosity | Snow |
|---|---|---|---|---|---|---|---|
| 1778127125 | 18.33° C | 27% | 1013.3 hPa | 0 mm | - | - | - |
| 1778126826 | 18.89° C | 27% | 1013 hPa | 0 mm | - | - | - |
| 1778126527 | 18.33° C | 25% | 1013.1 hPa | 0 mm | - | - | - |
| 1778126228 | 18.33° C | 23% | 1013 hPa | 0 mm | - | - | - |
| 1778125630 | 18.33° C | 26% | 1013 hPa | 0 mm | - | - | - |
| 1778106478 | 14.44° C | 74% | 1015.1 hPa | 0 mm | - | - | - |
| 1778106179 | 14.44° C | 74% | 1015.1 hPa | 0 mm | - | - | - |
| 1778105581 | 13.89° C | 77% | 1015.1 hPa | 0 mm | - | - | - |
| 1778103488 | 12.78° C | 82% | 1014.8 hPa | 0 mm | - | - | - |
| 1778103189 | 12.78° C | 83% | 1014.8 hPa | 0 mm | - | - | - |
| 1778101993 | 12.78° C | 83% | 1014.5 hPa | 0 mm | - | - | - |
| 1778101096 | 12.78° C | 83% | 1014.4 hPa | 0 mm | - | - | - |
| 1778100193 | 12.78° C | 83% | 1014.1 hPa | 0 mm | - | - | - |
| 1778099894 | 12.78° C | 83% | 1013.9 hPa | 0 mm | - | - | - |
| 1778099595 | 12.78° C | 83% | 1013.8 hPa | 0 mm | - | - | - |
| 1778099296 | 12.78° C | 83% | 1013.7 hPa | 0 mm | - | - | - |
| 1778098399 | 12.78° C | 82% | 1013.6 hPa | 0 mm | - | - | - |
| 1778097801 | 12.78° C | 82% | 1013.4 hPa | 0 mm | - | - | - |
| 1778097502 | 12.78° C | 83% | 1013.3 hPa | 0 mm | - | - | - |
| 1778096306 | 12.78° C | 84% | 1013.4 hPa | 0 mm | - | - | - |
| 1778096007 | 12.78° C | 85% | 1013.4 hPa | 0 mm | - | - | - |
| 1778095708 | 12.78° C | 85% | 1013.4 hPa | 0 mm | - | - | - |
| 1778095409 | 12.78° C | 85% | 1013.4 hPa | 0 mm | - | - | - |
| 1778095110 | 12.78° C | 86% | 1013.3 hPa | 0 mm | - | - | - |
| 1778093615 | 13.33° C | 87% | 1013.6 hPa | 0 mm | - | - | - |
* Rain latest hour (hover to see other rain measurements)
** Current wind speed in m/s (hover to see current wind gust speed)